Leesburg, VA

2:44 AM EST on November 19, 2019 (GMT -0500)
Leesburg Executive

Weather History for KJYO - October, 2019

Change the Weather History Date:

Sunday, October 20, 2019

  Actual Average (WUND) Record (WUND)
Temperature  
Mean Temperature 50 °F -  
Max Temperature 51 °F - - (-1)
Min Temperature 50 °F - - (-1)
Degree Days  
Heating Degree Days 14    
Moisture  
Dew Point 50 °F    
Average Humidity 97    
Maximum Humidity 100    
Minimum Humidity 82    
Precipitation  
Precipitation 0.62 in - - ()
Sea Level Pressure  
Sea Level Pressure 29.96 in    
Wind  
Wind Speed 3 mph (NNE)    
Max Wind Speed 14 mph    
Max Gust Speed 20 mph    
Visibility 7 miles    
Events      
Averages and records for this station are not official NWS values.
T = Trace of Precipitation, MM = Missing Value Source: NWS Daily Summary

Daily Weather History Graph

Daily Weather History Graph

Search for Another Location

Airport or City:

Astronomy

Oct. 20, 2019 Rise Set
Actual Time 7:24 AM EDT 6:24 PM EDT
Civil Twilight 6:57 AM EDT 6:51 PM EDT
Nautical Twilight 6:26 AM EDT 7:22 PM EDT
Astronomical Twilight 5:55 AM EDT 7:53 PM EDT
Moon 11:33 PM EDT (10/20) 1:48 PM EDT (10/20)
Length of Visible Light 11h 54m
Length of Day
11h 00m
Waning Gibbous, 59% of the Moon is Illuminated
Oct 20
Waning Gibbous
Oct 21
Last Quarter
Oct 27
New
Nov 4
First Quarter
Nov 12
Full

Hourly Weather History & Observations

Time (EDT) Temp. Dew Point Humidity Pressure Visibility Wind Dir Wind Speed Gust Speed Precip Events Conditions
12:15 AM 51.8 °F 46.4 °F 82% 30.01 in 10.0 mi Calm Calm - N/A   Clear
12:35 AM 50.0 °F 46.4 °F 87% 30.01 in 10.0 mi Calm Calm - N/A   Clear
12:55 AM 50.0 °F 46.4 °F 87% 30.01 in 10.0 mi Calm Calm - N/A   Clear
1:15 AM 50.0 °F 46.4 °F 87% 30.00 in 10.0 mi Calm Calm - N/A   Scattered Clouds
1:35 AM 50.0 °F 46.4 °F 87% 30.01 in 10.0 mi Calm Calm - N/A   Scattered Clouds
2:15 AM 51.8 °F 48.2 °F 88% 29.98 in 10.0 mi SSE 3.5 mph - N/A   Mostly Cloudy
2:35 AM 51.8 °F 48.2 °F 88% 29.98 in 10.0 mi Calm Calm - N/A   Overcast
2:55 AM 51.8 °F 48.2 °F 88% 29.97 in 10.0 mi SE 3.5 mph - N/A   Overcast
3:15 AM 51.8 °F 48.2 °F 88% 29.97 in 10.0 mi Calm Calm - N/A   Overcast
3:35 AM 51.8 °F 48.2 °F 88% 29.97 in 10.0 mi Calm Calm - N/A   Overcast
3:55 AM 51.8 °F 48.2 °F 88% 29.96 in 10.0 mi Calm Calm - N/A   Overcast
4:15 AM 51.8 °F 48.2 °F 88% 29.96 in 10.0 mi Calm Calm - N/A   Overcast
4:35 AM 51.8 °F 50.0 °F 94% 29.96 in 10.0 mi Calm Calm - N/A   Overcast
4:55 AM 51.8 °F 50.0 °F 94% 29.97 in 10.0 mi Calm Calm - N/A   Overcast
5:15 AM 50.0 °F 50.0 °F 100% 29.97 in 7.0 mi Calm Calm - 0.02 in   Overcast
5:35 AM 50.0 °F 50.0 °F 100% 29.98 in 10.0 mi Calm Calm - 0.03 in   Overcast
5:55 AM 50.0 °F 50.0 °F 100% 29.98 in 7.0 mi Calm Calm - 0.05 in   Overcast
6:15 AM 50.0 °F 50.0 °F 100% 29.98 in 7.0 mi Calm Calm - 0.02 in   Overcast
6:35 AM 50.0 °F 50.0 °F 100% 29.98 in 7.0 mi Calm Calm - 0.05 in   Overcast
6:55 AM 50.0 °F 50.0 °F 100% 29.98 in 7.0 mi Calm Calm - 0.07 in   Overcast
7:35 AM 50.0 °F 50.0 °F 100% 29.98 in 5.0 mi Calm Calm - 0.03 in   Overcast
7:55 AM 50.0 °F 50.0 °F 100% 29.97 in 5.0 mi NE 3.5 mph - 0.04 in   Overcast
8:15 AM 50.0 °F 50.0 °F 100% 29.97 in 3.0 mi NE 4.6 mph - 0.03 in   Overcast
8:35 AM 50.0 °F 50.0 °F 100% 29.98 in 5.0 mi Calm Calm - 0.04 in   Overcast
8:55 AM 50.0 °F 50.0 °F 100% 29.99 in 5.0 mi Calm Calm - 0.05 in   Overcast
9:15 AM 50.0 °F 50.0 °F 100% 29.99 in 4.0 mi NE 3.5 mph - 0.01 in   Overcast
9:55 AM 50.0 °F 50.0 °F 100% 30.00 in 4.0 mi NE 4.6 mph - 0.05 in   Overcast
10:15 AM 50.0 °F 50.0 °F 100% 29.98 in 4.0 mi NNE 4.6 mph - 0.01 in   Overcast
10:35 AM 50.0 °F 50.0 °F 100% 29.98 in 4.0 mi NE 5.8 mph - 0.03 in   Overcast
10:55 AM 50.0 °F 50.0 °F 100% 29.97 in 5.0 mi NE 5.8 mph - 0.03 in   Overcast
11:15 AM 50.0 °F 50.0 °F 100% 29.96 in 3.0 mi NE 5.8 mph - 0.01 in   Overcast
11:35 AM 50.0 °F 50.0 °F 100% 29.96 in 3.0 mi NE 9.2 mph - 0.01 in   Overcast
11:55 AM 50.0 °F 50.0 °F 100% 29.95 in 3.0 mi NE 8.1 mph - 0.02 in   Overcast
12:15 PM 50.0 °F 50.0 °F 100% 29.95 in 3.0 mi NNE 8.1 mph - 0.02 in   Overcast
12:35 PM 50.0 °F 50.0 °F 100% 29.93 in 2.5 mi NNE 6.9 mph - 0.05 in   Overcast
12:55 PM 51.8 °F 51.8 °F 100% 29.93 in 3.0 mi NNE 8.1 mph - 0.10 in   Overcast
1:15 PM 51.8 °F 51.8 °F 100% 29.93 in 3.0 mi NNE 6.9 mph - 0.02 in   Overcast
1:35 PM 51.8 °F 51.8 °F 100% 29.91 in 4.0 mi NNE 8.1 mph - 0.03 in   Overcast
1:55 PM 51.8 °F 51.8 °F 100% 29.91 in 4.0 mi NNE 8.1 mph - 0.04 in   Overcast
2:15 PM 51.8 °F 51.8 °F 100% 29.90 in 3.0 mi NNE 6.9 mph - 0.01 in   Overcast
2:35 PM 51.8 °F 51.8 °F 100% 29.90 in 2.5 mi NNE 6.9 mph - 0.04 in   Overcast
2:55 PM 51.8 °F 51.8 °F 100% 29.90 in 2.5 mi NNE 9.2 mph - 0.09 in   Overcast
3:35 PM 51.8 °F 51.8 °F 100% 29.90 in 3.0 mi NNE 10.4 mph 17.3 mph 0.04 in   Overcast
3:55 PM 51.8 °F 51.8 °F 100% 29.91 in 4.0 mi North 9.2 mph - 0.05 in   Overcast
4:15 PM 51.8 °F 51.8 °F 100% 29.91 in 4.0 mi North 9.2 mph 16.1 mph 0.01 in   Overcast
4:35 PM 51.8 °F 51.8 °F 100% 29.92 in 4.0 mi North 10.4 mph - 0.01 in   Overcast
4:55 PM 51.8 °F 51.8 °F 100% 29.92 in 5.0 mi North 8.1 mph 18.4 mph 0.02 in   Overcast
5:15 PM 51.8 °F 51.8 °F 100% 29.92 in 5.0 mi NNE 11.5 mph - N/A   Overcast
5:35 PM 51.8 °F 51.8 °F 100% 29.93 in 5.0 mi North 11.5 mph 18.4 mph N/A   Overcast
5:55 PM 51.8 °F 51.8 °F 100% 29.93 in 5.0 mi North 12.7 mph 16.1 mph N/A   Overcast
6:15 PM 51.8 °F 51.8 °F 100% 29.93 in 5.0 mi NNE 13.8 mph 19.6 mph 0.01 in   Overcast
6:35 PM 51.8 °F 51.8 °F 100% 29.94 in 10.0 mi NNE 9.2 mph - 0.01 in   Overcast
6:55 PM 51.8 °F 51.8 °F 100% 29.94 in 10.0 mi North 9.2 mph 16.1 mph 0.01 in   Overcast
7:35 PM 51.8 °F 51.8 °F 100% 29.95 in 7.0 mi NNE 10.4 mph 16.1 mph N/A   Overcast
7:55 PM 51.8 °F 51.8 °F 100% 29.95 in 10.0 mi NNE 9.2 mph - N/A   Overcast
8:15 PM 51.8 °F 51.8 °F 100% 29.95 in 10.0 mi NNE 11.5 mph - N/A   Overcast
8:35 PM 51.8 °F 51.8 °F 100% 29.96 in 10.0 mi NNE 9.2 mph - N/A   Overcast
8:55 PM 51.8 °F 51.8 °F 100% 29.97 in 10.0 mi North 10.4 mph - N/A   Overcast
9:15 PM 51.8 °F 51.8 °F 100% 29.97 in 10.0 mi North 10.4 mph 16.1 mph N/A   Overcast
9:35 PM 51.8 °F 51.8 °F 100% 29.98 in 10.0 mi NNE 4.6 mph - N/A   Overcast
9:55 PM 51.8 °F 51.8 °F 100% 29.98 in 10.0 mi North 3.5 mph - N/A   Overcast
10:15 PM 51.8 °F 51.8 °F 100% 30.00 in 7.0 mi North 4.6 mph - N/A   Overcast
10:35 PM 51.8 °F 51.8 °F 100% 30.00 in 7.0 mi North 4.6 mph - N/A   Overcast
10:55 PM 51.8 °F 51.8 °F 100% 30.00 in 7.0 mi North 3.5 mph - N/A   Overcast
11:35 PM 51.8 °F 51.8 °F 100% 30.01 in 5.0 mi North 4.6 mph - N/A   Overcast
11:55 PM 51.8 °F 50.0 °F 94% 30.01 in 10.0 mi NNE 9.2 mph 17.3 mph N/A   Overcast